Time,TemperatureF,DewpointF,PressureIn,WindDirection,WindDirectionDegrees,WindSpeedMPH,WindSpeedGustMPH,Humidity,HourlyPrecipIn,Conditions,Clouds,dailyrainin,SoftwareType,DateUTC
2015-08-02 00:01:00,83.0,63.0,29.89,North,0,0.0,0.0,51,0.00,,,0.00,WUHU216HW,2015-08-02 07:01:00,
2015-08-02 00:06:00,82.8,62.8,29.89,North,0,0.0,0.0,51,0.00,,,0.00,WUHU216HW,2015-08-02 07:06:00,
2015-08-02 00:11:00,82.8,62.8,29.89,North,0,0.0,0.0,51,0.00,,,0.00,WUHU216HW,2015-08-02 07:11:00,
2015-08-02 00:17:00,82.6,62.7,29.89,North,0,0.0,0.0,51,0.00,,,0.00,WUHU216HW,2015-08-02 07:17:00,
2015-08-02 00:22:00,82.6,62.7,29.89,North,0,0.0,0.0,51,0.00,,,0.00,WUHU216HW,2015-08-02 07:22:00,
2015-08-02 00:27:00,82.4,62.5,29.89,North,0,0.0,0.0,51,0.00,,,0.00,WUHU216HW,2015-08-02 07:27:00,
2015-08-02 00:32:00,82.4,62.5,29.89,North,0,0.0,0.0,51,0.00,,,0.00,WUHU216HW,2015-08-02 07:32:00,
2015-08-02 00:37:00,82.4,62.5,29.89,North,0,0.0,0.0,51,0.00,,,0.00,WUHU216HW,2015-08-02 07:37:00,
2015-08-02 00:42:00,82.4,62.5,29.89,North,0,0.0,0.0,51,0.00,,,0.00,WUHU216HW,2015-08-02 07:42:00,
2015-08-02 00:47:00,82.3,61.7,29.89,North,0,0.0,0.0,50,0.00,,,0.00,WUHU216HW,2015-08-02 07:47:00,
2015-08-02 00:52:00,82.3,61.1,29.89,North,0,0.0,0.0,49,0.00,,,0.00,WUHU216HW,2015-08-02 07:52:00,
2015-08-02 00:57:00,82.3,60.6,29.89,North,0,0.0,0.0,48,0.00,,,0.00,WUHU216HW,2015-08-02 07:57:00,
2015-08-02 01:02:00,82.3,60.6,29.89,North,0,0.0,0.0,48,0.00,,,0.00,WUHU216HW,2015-08-02 08:02:00,
2015-08-02 01:07:00,82.3,60.0,29.89,North,0,0.0,0.0,47,0.00,,,0.00,WUHU216HW,2015-08-02 08:07:00,
2015-08-02 01:12:00,82.4,60.1,29.89,North,0,0.0,0.0,47,0.00,,,0.00,WUHU216HW,2015-08-02 08:12:00,
2015-08-02 01:17:00,82.4,60.1,29.89,North,0,0.0,0.0,47,0.00,,,0.00,WUHU216HW,2015-08-02 08:17:00,
2015-08-02 01:22:00,82.4,60.1,29.89,North,0,0.0,0.0,47,0.00,,,0.00,WUHU216HW,2015-08-02 08:22:00,
2015-08-02 01:27:00,82.4,60.1,29.89,North,0,0.0,0.0,47,0.00,,,0.00,WUHU216HW,2015-08-02 08:27:00,
2015-08-02 01:32:00,82.4,60.1,29.89,North,0,0.0,0.0,47,0.00,,,0.00,WUHU216HW,2015-08-02 08:32:00,
2015-08-02 01:37:00,82.4,60.1,29.89,North,0,0.0,0.0,47,0.00,,,0.00,WUHU216HW,2015-08-02 08:37:00,
2015-08-02 01:42:00,82.4,60.1,29.89,North,0,0.0,0.0,47,0.00,,,0.00,WUHU216HW,2015-08-02 08:42:00,
2015-08-02 01:47:00,82.4,60.1,29.89,North,0,0.0,0.0,47,0.00,,,0.00,WUHU216HW,2015-08-02 08:47:00,
2015-08-02 01:52:00,82.3,59.3,29.89,North,0,0.0,0.0,46,0.00,,,0.00,WUHU216HW,2015-08-02 08:52:00,
2015-08-02 01:57:00,82.1,59.1,29.89,North,0,0.0,0.0,46,0.00,,,0.00,WUHU216HW,2015-08-02 08:57:00,
2015-08-02 02:02:00,82.1,59.1,29.88,North,0,0.0,0.0,46,0.00,,,0.00,WUHU216HW,2015-08-02 09:02:00,
2015-08-02 02:07:00,82.1,59.1,29.88,North,0,0.0,0.0,46,0.00,,,0.00,WUHU216HW,2015-08-02 09:07:00,
2015-08-02 02:12:00,82.1,59.8,29.89,North,0,0.0,0.0,47,0.00,,,0.00,WUHU216HW,2015-08-02 09:12:00,
2015-08-02 02:17:00,82.1,59.8,29.89,North,0,0.0,0.0,47,0.00,,,0.00,WUHU216HW,2015-08-02 09:17:00,
2015-08-02 02:22:00,82.3,60.0,29.88,North,0,0.0,0.0,47,0.00,,,0.00,WUHU216HW,2015-08-02 09:22:00,
2015-08-02 02:27:00,82.3,60.0,29.88,North,0,0.0,0.0,47,0.00,,,0.00,WUHU216HW,2015-08-02 09:27:00,
2015-08-02 02:32:00,82.3,60.0,29.88,North,0,0.0,0.0,47,0.00,,,0.00,WUHU216HW,2015-08-02 09:32:00,
2015-08-02 02:37:00,82.3,60.0,29.88,North,0,0.0,0.0,47,0.00,,,0.00,WUHU216HW,2015-08-02 09:37:00,
2015-08-02 02:42:00,82.1,60.4,29.88,North,0,0.0,0.0,48,0.00,,,0.00,WUHU216HW,2015-08-02 09:42:00,
2015-08-02 02:47:00,82.1,60.4,29.88,North,0,0.0,0.0,48,0.00,,,0.00,WUHU216HW,2015-08-02 09:47:00,
2015-08-02 02:52:00,81.7,60.0,29.88,North,0,0.0,0.0,48,0.00,,,0.00,WUHU216HW,2015-08-02 09:52:00,
2015-08-02 02:57:00,81.7,60.7,29.87,North,0,0.0,0.0,49,0.00,,,0.00,WUHU216HW,2015-08-02 09:57:00,
2015-08-02 03:02:00,81.5,60.5,29.88,North,0,0.0,0.0,49,0.00,,,0.00,WUHU216HW,2015-08-02 10:02:00,
2015-08-02 03:07:00,81.4,60.3,29.87,North,0,0.0,0.0,49,0.00,,,0.00,WUHU216HW,2015-08-02 10:07:00,
2015-08-02 03:11:00,81.2,60.8,29.87,North,0,0.0,0.0,50,0.00,,,0.00,WUHU216HW,2015-08-02 10:11:00,
2015-08-02 03:16:00,81.2,60.8,29.87,North,0,0.0,0.0,50,0.00,,,0.00,WUHU216HW,2015-08-02 10:16:00,
2015-08-02 03:21:00,81.0,60.7,29.87,North,0,0.0,0.0,50,0.00,,,0.00,WUHU216HW,2015-08-02 10:21:00,
2015-08-02 03:26:00,81.0,60.7,29.86,North,0,0.0,0.0,50,0.00,,,0.00,WUHU216HW,2015-08-02 10:26:00,
2015-08-02 03:31:00,80.8,60.5,29.86,North,0,0.0,0.0,50,0.00,,,0.00,WUHU216HW,2015-08-02 10:31:00,
2015-08-02 03:36:00,80.8,61.0,29.87,North,0,0.0,0.0,51,0.00,,,0.00,WUHU216HW,2015-08-02 10:36:00,
2015-08-02 03:41:00,80.6,60.3,29.86,North,0,0.0,0.0,50,0.00,,,0.00,WUHU216HW,2015-08-02 10:41:00,
2015-08-02 03:46:00,80.6,60.3,29.86,North,0,0.0,0.0,50,0.00,,,0.00,WUHU216HW,2015-08-02 10:46:00,
2015-08-02 03:51:00,80.3,60.5,29.86,North,0,0.0,0.0,51,0.00,,,0.00,WUHU216HW,2015-08-02 10:51:00,
2015-08-02 03:56:00,80.3,61.0,29.86,North,0,0.0,0.0,52,0.00,,,0.00,WUHU216HW,2015-08-02 10:56:00,
2015-08-02 04:01:00,80.1,61.4,29.86,North,0,0.0,0.0,53,0.00,,,0.00,WUHU216HW,2015-08-02 11:01:00,
2015-08-02 04:06:00,79.9,61.2,29.86,North,0,0.0,0.0,53,0.00,,,0.00,WUHU216HW,2015-08-02 11:06:00,
2015-08-02 04:11:00,79.7,61.0,29.86,North,0,0.0,0.0,53,0.00,,,0.00,WUHU216HW,2015-08-02 11:11:00,
2015-08-02 04:16:00,79.6,60.9,29.86,North,0,0.0,0.0,53,0.00,,,0.00,WUHU216HW,2015-08-02 11:16:00,
2015-08-02 04:21:00,79.6,60.9,29.86,North,0,0.0,0.0,53,0.00,,,0.00,WUHU216HW,2015-08-02 11:21:00,
2015-08-02 04:26:00,79.2,61.1,29.86,North,0,0.0,0.0,54,0.00,,,0.00,WUHU216HW,2015-08-02 11:26:00,
2015-08-02 04:31:00,79.0,60.9,29.86,North,0,0.0,0.0,54,0.00,,,0.00,WUHU216HW,2015-08-02 11:31:00,
2015-08-02 04:36:00,78.8,60.8,29.87,North,0,0.0,0.0,54,0.00,,,0.00,WUHU216HW,2015-08-02 11:36:00,
2015-08-02 04:41:00,78.8,61.3,29.87,North,0,0.0,0.0,55,0.00,,,0.00,WUHU216HW,2015-08-02 11:41:00,
2015-08-02 04:46:00,78.8,61.3,29.87,North,0,0.0,0.0,55,0.00,,,0.00,WUHU216HW,2015-08-02 11:46:00,
2015-08-02 04:51:00,78.8,61.8,29.87,North,0,0.0,0.0,56,0.00,,,0.00,WUHU216HW,2015-08-02 11:51:00,
2015-08-02 04:56:00,78.8,61.8,29.87,North,0,0.0,0.0,56,0.00,,,0.00,WUHU216HW,2015-08-02 11:56:00,
2015-08-02 05:01:00,78.7,61.7,29.87,North,0,0.0,0.0,56,0.00,,,0.00,WUHU216HW,2015-08-02 12:01:00,
2015-08-02 05:06:00,78.5,61.5,29.87,North,0,0.0,0.0,56,0.00,,,0.00,WUHU216HW,2015-08-02 12:06:00,
2015-08-02 05:11:00,78.5,62.0,29.88,North,0,0.0,0.0,57,0.00,,,0.00,WUHU216HW,2015-08-02 12:11:00,
2015-08-02 05:16:00,78.3,61.8,29.88,North,0,0.0,0.0,57,0.00,,,0.00,WUHU216HW,2015-08-02 12:16:00,
2015-08-02 05:21:00,78.1,62.2,29.88,North,0,0.0,0.0,58,0.00,,,0.00,WUHU216HW,2015-08-02 12:21:00,
2015-08-02 05:26:00,77.9,62.0,29.88,North,0,0.0,0.0,58,0.00,,,0.00,WUHU216HW,2015-08-02 12:26:00,
2015-08-02 05:31:00,77.8,61.8,29.88,North,0,0.0,0.0,58,0.00,,,0.00,WUHU216HW,2015-08-02 12:31:00,
2015-08-02 05:36:00,77.6,61.7,29.88,North,0,0.0,0.0,58,0.00,,,0.00,WUHU216HW,2015-08-02 12:36:00,
2015-08-02 05:41:00,77.4,61.9,29.89,North,0,0.0,0.0,59,0.00,,,0.00,WUHU216HW,2015-08-02 12:41:00,
2015-08-02 05:46:00,77.4,61.5,29.89,North,0,0.0,0.0,58,0.00,,,0.00,WUHU216HW,2015-08-02 12:46:00,
2015-08-02 05:51:00,77.2,61.7,29.89,North,0,0.0,0.0,59,0.00,,,0.00,WUHU216HW,2015-08-02 12:51:00,
2015-08-02 05:56:00,77.2,61.3,29.89,North,0,0.0,0.0,58,0.00,,,0.00,WUHU216HW,2015-08-02 12:56:00,
2015-08-02 06:01:00,77.2,61.3,29.89,North,0,0.0,0.0,58,0.00,,,0.00,WUHU216HW,2015-08-02 13:01:00,
2015-08-02 06:06:00,77.2,61.7,29.89,North,0,0.0,0.0,59,0.00,,,0.00,WUHU216HW,2015-08-02 13:06:00,
2015-08-02 06:11:00,77.4,61.9,29.89,North,0,0.0,0.0,59,0.00,,,0.00,WUHU216HW,2015-08-02 13:11:00,
2015-08-02 06:16:00,77.2,61.7,29.89,North,0,0.0,0.0,59,0.00,,,0.00,WUHU216HW,2015-08-02 13:16:00,
2015-08-02 06:21:00,77.2,61.7,29.89,North,0,0.0,0.0,59,0.00,,,0.00,WUHU216HW,2015-08-02 13:21:00,
2015-08-02 06:26:00,77.2,61.7,29.89,North,0,0.0,0.0,59,0.00,,,0.00,WUHU216HW,2015-08-02 13:26:00,
2015-08-02 06:31:00,77.2,61.7,29.89,North,0,0.0,0.0,59,0.00,,,0.00,WUHU216HW,2015-08-02 13:31:00,
2015-08-02 06:36:00,77.2,62.3,29.89,North,0,0.0,0.0,60,0.00,,,0.00,WUHU216HW,2015-08-02 13:36:00,
2015-08-02 06:41:00,77.4,62.5,29.89,North,0,0.0,0.0,60,0.00,,,0.00,WUHU216HW,2015-08-02 13:41:00,
2015-08-02 06:46:00,77.6,62.6,29.89,North,0,0.0,0.0,60,0.00,,,0.00,WUHU216HW,2015-08-02 13:46:00,
2015-08-02 06:51:00,77.8,62.8,29.89,North,0,0.0,0.0,60,0.00,,,0.00,WUHU216HW,2015-08-02 13:51:00,
2015-08-02 06:56:00,77.9,63.0,29.90,North,0,0.0,0.0,60,0.00,,,0.00,WUHU216HW,2015-08-02 13:56:00,
2015-08-02 07:01:00,78.1,63.2,29.90,North,0,0.0,0.0,60,0.00,,,0.00,WUHU216HW,2015-08-02 14:01:00,
2015-08-02 07:06:00,78.5,63.5,29.90,North,0,0.0,0.0,60,0.00,,,0.00,WUHU216HW,2015-08-02 14:06:00,
2015-08-02 07:11:00,79.0,63.5,29.90,North,0,0.0,0.0,59,0.00,,,0.00,WUHU216HW,2015-08-02 14:11:00,
2015-08-02 07:16:00,79.2,63.7,29.90,North,0,0.0,0.0,59,0.00,,,0.00,WUHU216HW,2015-08-02 14:16:00,
2015-08-02 07:21:00,79.6,64.0,29.90,North,0,0.0,0.0,59,0.00,,,0.00,WUHU216HW,2015-08-02 14:21:00,
2015-08-02 07:26:00,80.1,64.0,29.90,North,0,0.0,0.0,58,0.00,,,0.00,WUHU216HW,2015-08-02 14:26:00,
2015-08-02 07:31:00,80.6,64.0,29.90,North,0,0.0,0.0,57,0.00,,,0.00,WUHU216HW,2015-08-02 14:31:00,
2015-08-02 07:36:00,81.7,64.5,29.90,North,0,0.0,0.0,56,0.00,,,0.00,WUHU216HW,2015-08-02 14:36:00,
2015-08-02 07:41:00,82.3,64.4,29.90,North,0,0.0,0.0,55,0.00,,,0.00,WUHU216HW,2015-08-02 14:41:00,
2015-08-02 07:46:00,83.0,64.5,29.90,North,0,0.0,0.0,54,0.00,,,0.00,WUHU216HW,2015-08-02 14:46:00,
2015-08-02 07:51:00,83.7,64.7,29.90,North,0,0.0,0.0,53,0.00,,,0.00,WUHU216HW,2015-08-02 14:51:00,
2015-08-02 07:56:00,84.4,65.4,29.90,North,0,0.0,0.0,53,0.00,,,0.00,WUHU216HW,2015-08-02 14:56:00,
2015-08-02 08:01:00,85.0,65.4,29.90,North,0,0.0,0.0,52,0.00,,,0.00,WUHU216HW,2015-08-02 15:01:00,
2015-08-02 08:06:00,85.1,65.6,29.91,North,0,0.0,0.0,52,0.00,,,0.00,WUHU216HW,2015-08-02 15:06:00,
2015-08-02 08:11:00,86.6,65.8,29.91,North,0,0.0,0.0,50,0.00,,,0.00,WUHU216HW,2015-08-02 15:11:00,
2015-08-02 08:16:00,87.1,65.7,29.90,North,0,0.0,0.0,49,0.00,,,0.00,WUHU216HW,2015-08-02 15:16:00,
2015-08-02 08:21:00,87.3,65.3,29.91,North,0,0.0,0.0,48,0.00,,,0.00,WUHU216HW,2015-08-02 15:21:00,
2015-08-02 08:26:00,88.2,64.7,29.91,North,0,0.0,0.0,46,0.00,,,0.00,WUHU216HW,2015-08-02 15:26:00,
2015-08-02 08:31:00,88.7,65.3,29.91,North,0,0.0,0.0,46,0.00,,,0.00,WUHU216HW,2015-08-02 15:31:00,
2015-08-02 08:36:00,89.6,65.3,29.91,North,0,0.0,0.0,45,0.00,,,0.00,WUHU216HW,2015-08-02 15:36:00,
2015-08-02 08:41:00,90.0,65.0,29.91,North,0,0.0,0.0,44,0.00,,,0.00,WUHU216HW,2015-08-02 15:41:00,
2015-08-02 08:46:00,91.1,65.3,29.91,North,0,0.0,0.0,43,0.00,,,0.00,WUHU216HW,2015-08-02 15:46:00,
2015-08-02 08:51:00,91.3,64.9,29.91,North,0,0.0,0.0,42,0.00,,,0.00,WUHU216HW,2015-08-02 15:51:00,
2015-08-02 08:56:00,91.8,64.7,29.91,North,0,0.0,0.0,41,0.00,,,0.00,WUHU216HW,2015-08-02 15:56:00,
2015-08-02 09:01:00,92.2,65.0,29.91,North,0,0.0,0.0,41,0.00,,,0.00,WUHU216HW,2015-08-02 16:01:00,
2015-08-02 09:06:00,92.7,64.9,29.91,North,0,0.0,0.0,40,0.00,,,0.00,WUHU216HW,2015-08-02 16:06:00,
2015-08-02 09:11:00,93.1,64.4,29.91,North,0,0.0,0.0,39,0.00,,,0.00,WUHU216HW,2015-08-02 16:11:00,
2015-08-02 09:16:00,93.4,64.7,29.91,North,0,0.0,0.0,39,0.00,,,0.00,WUHU216HW,2015-08-02 16:16:00,
2015-08-02 09:21:00,94.1,64.5,29.91,North,0,0.0,0.0,38,0.00,,,0.00,WUHU216HW,2015-08-02 16:21:00,
2015-08-02 09:26:00,94.5,64.9,29.91,North,0,0.0,0.0,38,0.00,,,0.00,WUHU216HW,2015-08-02 16:26:00,